sat.trackr.live / text

‹ back to catalog

HAIYANG-2A

NORAD 37781 · 2011-043A

PAYLOAD ACTIVE UNKNOWN

§ Identity

Operator
Country
PRC
Launch date
2011-08-15
Launch site
TAISC
Launch vehicle
Mass (kg)
RCS (m²)
4.63

Purposes: earth_obs

External: N2YO · Heavens-Above · Gunter

§ Orbital elements

Epoch: 2026-09-20T05:29:10.305600Z

Period
105.01 min
Inclination
99.3461°
Eccentricity
0.0003753
Mean motion
13.71332466 rev/d
Perigee alt
992.0 km
Apogee alt
997.6 km
Semi-major
7,372.9 km
B*
-2.3565e-4
RAAN
263.5577°
Arg perigee
112.3858°
Mean anomaly
247.7687°
Rev number
75,969

§ Raw data

HAIYANG-2A1 37781U 11043A   26263.22859150 -.00000255  00000+0 -23565-3 0  99932 37781  99.3461 263.5577 0003753 112.3858 247.7687 13.71332466759694

JSON: /api/v1/satellites/37781 · /tle

For live sub-satellite position, see the globe view (requires WebGL).

§ Visibility from observer

Set your observer location to see the next 7 days of passes ≥ 10°. The values pass through the URL so the page stays shareable.

No JS? Fill the form by hand. The geolocation button needs JavaScript.

§ Radio — SatNOGS DB

ModeDescriptionDownlinkUplink
FM S-band telemetry 2.228 GHz

1 transmitter · refreshed weekly from db.satnogs.org